Terug naar catalogus

STARLINK-3652

ActiefCommunicatieVLEO
NORAD 51991·PAYLOAD·🇺🇸 United States

Gelanceerd Mar 9, 2022 vanaf Cape Canaveral Space Force Station

Loading…

Volgende Passages (komende 24 uur)

TLE

VersSource: CelesTrak SupGP

Epoch: Sep 15, 2026, 02:28 UTC

1 51991C 22025AM  26258.10326389 -.00034201  00000+0 -10100-2 0  2584
2 51991  53.1575 253.0071 0001355  83.0393 248.8472 15.34422347    12

Volg STARLINK-3652 in realtime met AllMySat

Download on the App Store